Regional Weather Roundup
Issued by NWS

Home | Current Version | Previous Version | Text Only | Print | Product List | Glossary Off
Versions: 1 2 3 4 5 6 7 8 9 10 11 12 13 14 15 16 17 18 19 20 21 22 23 24 25 26 27 28 29 30 31 32 33 34 35 36 37 38 39 40 41 42 43 44 45 46 47 48 49

000
ASUS43 KDMX 040807
RWRIA

WEATHER ROUNDUP FOR IOWA
NATIONAL WEATHER SERVICE DES MOINES IA
300 AM CDT SAT JUL 04 2015

NOTE: "FAIR" INDICATES FEW OR NO CLOUDS BELOW 12,000 FEET WITH NO
SIGNIFICANT WEATHER AND/OR OBSTRUCTIONS TO VISIBILITY.

* - THESE STATIONS ARE NOT NWS STATIONS...THUS NOT UNDER NWS
QUALITY CONTROL.  THEY ALSO DO NOT REPORT WEATHER SUCH
AS PRECIPITATION OR FOG.

IAZ001>003-012>014-020>022-031>034-043>046-040900-
   NORTHWEST IOWA

CITY           SKY/WX    TMP DP  RH WIND       PRES   REMARKS
CARROLL *      CLOUDY    55  55 100 CALM      29.99S
CHEROKEE *     CLEAR     55  55 100 CALM      29.99S
DENISON *      CLOUDY    55  54  94 CALM      29.98S
LE MARS *        N/A     59  57  94 CALM      29.99S
ORANGE CITY *  CLEAR     61  55  82 CALM      29.99S
SHELDON *      MOCLDY    57  57 100 CALM      29.98S
SIOUX CITY     CLEAR     60  56  86 E6        29.98S
SPENCER        CLEAR     58  54  86 SW3       29.98S
STORM LAKE *   CLEAR     61  55  82 SW7       30.00S
$$

IAZ055>058-069>071-079>083-090>094-040900-
   SOUTHWEST IOWA

CITY           SKY/WX    TMP DP  RH WIND       PRES   REMARKS
ATLANTIC *     CLOUDY    54  54 100 CALM      30.00S
AUDUBON *      CLEAR     54  50  87 CALM      30.01S
CLARINDA *     CLEAR     55  55 100 CALM      30.01S FOG
COUNCIL BLFS * MOCLDY    61  54  77 S5        30.00S
CRESTON *      CLEAR     61  57  88 CALM      30.00F
HARLAN  *      CLEAR     54  54 100 CALM      30.03S
LAMONI         CLEAR     65  54  67 S3        30.00S
RED OAK *      CLOUDY    55  55 100 CALM      29.99F
SHENANDOAH *     N/A     55  55 100 CALM      30.00S
$$

IAZ047>049-059>061-072>074-084-040900-
   CENTRAL IOWA

CITY           SKY/WX    TMP DP  RH WIND       PRES   REMARKS
AMES           CLEAR     56  55  97 CALM      29.98S
ANKENY *       CLEAR     57  57 100 CALM      29.98R FOG
CHARITON *     CLOUDY    59  57  94 S5        29.99S
DES MOINES     PTCLDY    64  56  75 CALM      29.98S
GRINNELL*      CLEAR     61  57  88 SW3       29.99S
KNOXVILLE *    CLEAR     59  54  82 SW6       29.97S
MARSHALLTOWN   CLEAR     59  57  93 CALM      29.97S
PELLA *        CLEAR     59  59 100 CALM      29.99S
PERRY *          N/A     57  55  94 CALM      29.99S
$$

IAZ004>006-015-016-023>025-035-036-040900-
   NORTH CENTRAL IOWA

CITY           SKY/WX    TMP DP  RH WIND       PRES   REMARKS
ALGONA *       CLOUDY    61  57  88 W5        29.98S
CLARION *      CLEAR     57  54  88 S5        29.98S
ESTHERVILLE    CLEAR     59  56  89 SW7       29.97S
FORT DODGE *   CLEAR     55  52  88 CALM      29.99R
MASON CITY     CLEAR     60  54  80 SW5       29.98S
FOREST CITY *  CLEAR     55  54  94 CALM      29.98R
IOWA FALLS *     N/A     57  54  88 CALM      29.99S
$$

IAZ007>011-017>019-026>030-037>042-050>054-066-040900-
   NORTHEAST IOWA

CITY           SKY/WX    TMP DP  RH WIND       PRES   REMARKS
CEDAR RAPIDS   CLEAR     58  57  97 CALM      29.97S
CHARLES CITY * CLEAR     57  57 100 S3        29.98R
CLINTON *      CLEAR     57  54  88 W6        30.00S
DECORAH *        N/A    N/A N/A N/A MISG        N/A
DUBUQUE        CLEAR     56  54  93 SW3       29.98R
MONTICELLO *   CLEAR     55  55 100 CALM      29.97S
OELWEIN *      CLEAR     57  55  94 S3        29.98S
WATERLOO       CLEAR     58  56  93 CALM      29.96S
$$

IAZ064-065-067-068-078-040900-
   EAST CENTRAL IOWA

CITY           SKY/WX    TMP DP  RH WIND       PRES   REMARKS
DAVENPORT      CLEAR     56  54  93 CALM      29.98S
IOWA CITY      CLEAR     59  56  89 CALM      29.99S
MT. PLEASANT * CLEAR     61  57  88 CALM      29.98S
MUSCATINE *    CLEAR     59  57  94 CALM      29.98S
QUAD CITIES    CLEAR     59  56  89 CALM      29.97S FOG
$$

IAZ062-063-075>077-085>089-095>099-040900-
   SOUTHEAST IOWA

CITY           SKY/WX    TMP DP  RH WIND       PRES   REMARKS
BURLINGTON     CLEAR     61  59  93 CALM      29.97F
FAIRFIELD *    CLEAR     57  55  94 CALM      29.98F
FORT MADISON * CLEAR     61  59  94 CALM      29.99S
KEOKUK *       CLEAR     61  59  94 CALM      29.97F
OSKALOOSA *      N/A     55  54  94 CALM      29.99S
CENTERVILLE *  PTCLDY    59  57  94 CALM      30.00F
OTTUMWA        CLEAR     58  56  93 CALM      29.97S
WASHINGTON *   CLEAR     55  55 100 CALM      30.00S
$$

ABBREVIATIONS USED IN REMARKS
   TC - TEMPERATURES IN CELSIUS
  WCI - WIND CHILL INDEX
   HX - HEAT INDEX
  VSB - VISIBILITY
$$




USA.gov is the U.S. government's official web portal to all federal, state and local government web resources and services.